Location: Le Bech
(45.0664°N, 1.8902°E)
Time: 12:19:35
(UTC+00:00)

Daily predictions for brighter satellites

Satellite Brightness Start Highest point End
(mag) Time Altitude Azimuth Time Altitude Azimuth Time Altitude Azimuth
Cosmos 2227 Rocket 3.5 17:03:18 10° WSW 17:08:32 38° NW 17:13:49 10° NNE
Cosmos 1674 2.7 17:06:32 10° S 17:10:22 90° E 17:14:13 10° N
Landsat 5 3.3 17:06:43 10° NNE 17:10:44 87° ESE 17:14:36 10° SSW
RESURS DK-1 2.8 17:07:02 10° S 17:10:58 46° ESE 17:14:57 10° NE
Okean O Rocket 1.7 17:07:04 10° SSE 17:11:25 58° ENE 17:15:48 10° N
SeaSat 1 4.4 17:08:01 10° N 17:11:50 23° NW 17:15:39 10° W
ERS-2 4.0 17:13:12 10° ENE 17:15:00 13° E 17:16:47 10° ESE
PAYLOAD B 4.5 17:10:07 10° S 17:15:36 78° WSW 17:21:09 10° NNW
CZ-4C R/B 3.1 17:13:46 10° N 17:16:55 69° WNW 17:20:01 10° SSW
CZ-4B R/B 2.6 17:14:26 10° NE 17:17:15 24° E 17:20:01 10° SSE
SL-24 R/B 4.1 17:15:39 10° SSE 17:19:55 77° ENE 17:24:25 10° N
CZ-4C R/B 2.4 17:16:16 10° SW 17:21:11 68° NW 17:27:08 10° NE
CZ-4B R/B 3.3 17:18:11 10° SSE 17:23:42 89° ENE 17:29:21 10° NNW
Cosmos 1844 Rocket 4.5 17:22:29 10° ESE 17:23:47 11° E 17:25:06 10° E
Tsikada Rocket 4.1 17:17:49 10° S 17:24:11 89° E 17:30:30 10° N
FengYun 1-2 T 4.2 17:19:31 10° SSE 17:25:02 76° ENE 17:30:39 10° N
USA 234 4.2 17:19:33 10° ENE 17:25:11 32° N 17:30:51 10° NW
Cosmos 1400 Rocket 3.3 17:23:27 10° NNW 17:27:34 68° W 17:31:37 10° S
CZ-2D R/B 4.0 17:24:47 10° SE 17:28:10 30° ENE 17:31:33 10° N
Cosmos 1354 Rocket 4.2 17:24:01 10° S 17:29:12 57° ESE 17:34:27 10° NNE
Meteor 2-5 Rocket 3.8 17:24:01 10° S 17:29:28 56° E 17:34:52 10° NNE
SL-14 R/B 3.4 17:26:18 10° S 17:30:01 51° E 17:33:49 10° NNE
Cosmos 1025 Rocket 4.1 17:26:47 10° SSW 17:30:56 47° WNW 17:35:10 10° N
Cosmos 972 4.4 17:26:23 10° NNW 17:31:46 83° ENE 17:36:42 10° SSE
Cosmos 1603 3.7 17:26:49 10° NNW 17:32:30 63° ENE 17:38:10 10° SE
Cosmos 2297 Rocket 4.2 17:29:25 10° W 17:33:46 22° NW 17:38:09 10° N
COSMOS 2455 3.9 17:31:33 10° SSE 17:36:20 25° ESE 17:40:26 13° ENE
ATLAS 3B R/B 2.8 17:32:25 10° NW 17:39:25 90° WSW 17:46:41 10° SE
YAOGAN 1 3.5 17:40:11 10° ESE 17:43:45 26° ENE 17:47:22 10° N
Cosmos 968 Rocket 4.3 17:38:48 10° SW 17:43:46 51° WNW 17:48:46 10° NNE
Cosmos 1892 Rocket 4.3 17:40:08 10° SSE 17:43:55 30° E 17:47:45 10° NNE
Cosmos 1606 Rocket 3.7 17:40:02 10° N 17:44:18 50° ENE 17:48:35 10° SSE
H-2A R/B 2.7 17:42:32 10° N 17:46:58 59° WNW 17:51:17 10° SSW
H-2A R/B 4.1 17:44:11 10° SSW 17:47:50 36° W 17:51:39 10° NNW
Cosmos 1626 2.5 17:45:06 10° SSW 17:48:46 66° W 17:52:28 10° N
CZ-2C R/B 3.2 17:44:10 10° SE 17:49:11 52° ENE 17:54:31 10° N
Cosmos 1939 Rocket 2.8 17:45:36 10° SSE 17:49:44 81° ENE 17:53:52 10° N
NOSS 7 (E) 4.4 17:47:05 10° SW 17:50:59 85° SE 17:53:16 18° NE
CZ-4 R/B 1.9 17:52:02 10° SE 17:55:52 38° ENE 17:59:39 10° N
SKYMED 2 3.5 17:52:22 10° NNE 17:56:43 66° ESE 18:01:01 10° S
ATLAS 5 CENTAUR R/B 1.4 17:53:38 10° SW 17:57:36 89° NW 18:01:05 16° NE
MOS 1 Rocket 3.2 17:54:07 10° NNE 17:58:21 49° E 18:02:29 10° S
BREEZE-M DEB (TANK) 2.9 17:57:23 10° WNW 18:00:53 49° SW 18:02:38 15° SE
CREW DRAGON DEMO-1 DEB 4.4 18:00:13 10° NW 18:02:32 21° N 18:03:09 20° NNE
Meteor 2-10 Rocket 3.8 17:59:27 10° N 18:04:52 48° ENE 18:10:02 10° SSE
Feng Yun 1-1 Rocket 4.2 18:01:01 10° SSE 18:06:24 87° WSW 18:11:57 10° NNW
Abrixas rocket 3.6 18:05:46 10° W 18:08:05 27° SSW 18:10:07 12° SSE
Cosmos 2058 Rocket 3.3 18:04:37 10° N 18:08:58 46° ENE 18:13:17 10° SSE
Cosmos 2228 3.1 18:04:59 10° NNW 18:09:15 78° W 18:13:31 10° S
SJ 16-02 2.8 18:06:20 10° SE 18:08:46 20° ESE 18:08:46 20° ESE
H-2A R/B 2.2 18:05:43 10° SE 18:10:25 46° ENE 18:15:16 10° N
Cosmos 1315 Rocket 3.2 18:06:56 10° NNW 18:10:52 66° W 18:14:49 10° S
Cosmos 2263 Rocket 2.5 18:05:19 10° SW 18:10:59 68° WNW 18:16:39 10° NNE
Okean 1-7 Rocket 4.0 18:09:03 10° SSE 18:13:18 42° E 18:16:13 19° NNE
SAR-Lupe-4 3.7 18:12:53 30° NE 18:14:19 49° E 18:17:47 10° S
EXPRESS MD2 4.1 18:06:13 10° WNW 18:14:36 69° NNE 18:16:49 30° E
Meteor 1-24 Rocket 3.7 18:10:28 10° SSW 18:15:52 77° W 18:21:12 10° N
Cosmos 1300 3.7 18:15:29 10° NNW 18:19:11 49° W 18:22:52 10° S
Cosmos 1689 Rocket 2.6 18:22:29 42° SSE 18:22:29 42° SSE 18:24:37 10° S
Cosmos 1818 4.3 18:20:02 10° S 18:24:44 31° ESE 18:25:19 30° E
SAR-Lupe-1 3.9 18:24:36 38° NNE 18:25:48 67° ESE 18:29:20 10° S
Cosmos 1943 3.9 18:22:56 10° NNW 18:28:29 55° WSW 18:33:57 10° S
ISS -1.5 18:27:19 10° S 18:28:24 15° SSE 18:28:24 15° SSE
Helios 1A Rocket 2.8 18:26:00 10° SSE 18:30:04 62° ENE 18:34:11 10° N
Meteor 2-13 Rocket 4.4 18:24:10 10° S 18:30:05 57° E 18:36:05 10° NNE
SJ-11-01 4.2 18:27:49 10° SSE 18:32:29 67° ENE 18:37:09 10° N
Cosmos 1726 Rocket 4.0 18:28:12 10° NNW 18:32:31 63° W 18:36:50 10° S
USA 267 3.6 18:29:51 30° E 18:32:37 46° SE 18:38:50 10° SSW
ARGOS 3.2 18:27:53 10° SSE 18:33:05 54° ENE 18:38:20 10° N
CSL-04 Debris 4.1 18:29:09 10° SSE 18:34:25 58° ENE 18:39:43 10° N
Cosmos 1844 4.3 18:30:05 10° S 18:35:07 35° ESE 18:35:09 35° ESE
Meteor 1-21 Rocket 4.3 18:31:08 10° SSE 18:36:23 47° E 18:38:13 34° NE
Lacrosse 5 2.4 18:32:25 10° NW 18:37:11 39° NNE 18:37:41 38° NE
Cosmos 773 Rocket 4.5 18:33:53 10° NNW 18:38:58 60° WSW 18:44:00 10° S
Okean-O 2.6 18:34:52 10° SSE 18:39:18 82° WSW 18:43:46 10° NNW
ATLAS 2AS CENTAUR R/B 4.2 18:34:44 10° W 18:41:55 36° NW 18:48:02 14° NNE
CZ-2C R/B 3.0 18:43:09 42° ESE 18:43:09 42° ESE 18:48:14 10° SSE
COSMO-SKYMED 1 3.9 18:40:41 10° N 18:44:44 39° WNW 18:48:46 10° SW
ERS-2 3.1 18:46:37 20° N 18:48:46 45° WNW 18:52:14 10° SW
CZ-4B R/B 3.9 18:46:42 10° NNW 18:49:21 21° WNW 18:51:56 10° WSW
X-37B 3.3 18:47:23 10° SSW 18:47:55 13° S 18:47:55 13° S
Cosmos 158 Rocket 4.2 18:46:40 10° NNW 18:51:26 50° NE 18:51:26 50° NE
Cosmos 1538 Rocket 4.3 18:57:48 10° NNW 19:02:56 66° WSW 19:08:01 10° S
Cosmos 1844 Rocket 2.5 19:01:01 10° SSW 19:06:40 77° ESE 19:07:13 69° ENE
USA 234 3.4 19:06:27 49° NE 19:07:23 52° NNE 19:13:42 10° NW
Meteor 2-1 Rocket 4.2 19:02:53 10° NNW 19:08:31 79° W 19:14:00 10° S
CZ-4C R/B 4.2 19:06:53 10° WNW 19:11:00 21° NNW 19:13:43 16° N
Cosmos 489 Rocket 4.4 19:06:19 10° NNW 19:12:44 88° ENE 19:15:41 35° SSE
Cosmos 1092 Rocket 3.8 19:08:36 10° S 19:14:49 80° E 19:17:18 39° NNE
Iridium 4 Rocket 4.0 19:11:06 10° N 19:23:29 - S 19:15:35 54° N
Meteor 2-8 Rocket 4.4 19:11:06 10° N 19:16:19 61° NNE 19:16:19 61° NNE
YAOGAN 1 4.3 19:15:52 10° SSW 19:19:44 32° W 19:23:38 10° NNW
COSMOS 2455 3.2 19:15:52 10° SW 19:21:50 61° NW 19:23:37 43° N
Cosmos 2344 4.4 19:15:31 10° NW 19:24:26 55° NE 19:26:40 49° E
CSL-04 Rocket 4.3 19:24:18 10° S 19:29:31 53° W 19:34:52 10° NNW
CZ-4 R/B 4.0 19:27:57 10° SW 19:31:00 20° W 19:34:02 10° NW
ATLAS 5 CENTAUR R/B 3.9 19:40:06 10° WNW 19:42:38 17° NW 19:42:38 17° NW
SJ 16-02 3.4 19:43:46 10° SW 19:45:49 24° WSW 19:45:49 24° WSW
H-2A R/B 4.2 19:46:16 10° SW 19:50:06 22° W 19:54:02 10° NW
NOSS 3-1 (C) 4.2 19:50:33 10° NW 19:56:36 59° N 19:56:36 59° N
USA 267 3.9 20:17:12 51° W 20:17:12 51° W 20:22:12 10° WSW
Lacrosse 5 4.2 20:15:24 10° WNW 20:16:54 19° WNW 20:16:54 19° WNW
